DW9987 Weather Reports


Display with metric or nautical units.
time (UTC)temp
F
wind
direction
speed
MPH
gust
MPH
rain 1hr
in
rain 24hr
in
rain mn
in
humidity
%
barometer
mb
20260509141548 60 170 3.0 8.0 0.00 0.00 0.00 77 1004.6
20260509140056 59 215 3.0 10.0 0.00 0.00 0.00 80 1004.6
20260509134541 59 345 1.0 7.0 0.00 0.00 0.00 82 1004.7
20260509133039 57 248 3.0 8.0 0.00 0.00 0.00 84 1004.5
20260509131535 56 321 2.0 8.0 0.00 0.00 0.00 87 1004.5
20260509130034 54 262 3.0 8.0 0.00 0.00 0.00 89 1004.7
20260509124532 53 204 4.0 14.0 0.00 0.00 0.00 89 1004.7
20260509123031 53 244 3.0 7.0 0.00 0.00 0.00 91 1004.5
20260509121531 53 246 1.0 6.0 0.00 0.00 0.00 91 1004.5
20260509120030 52 249 0.0 6.0 0.00 0.00 0.00 92 1004.5
20260509114534 52 232 2.0 8.0 0.00 0.00 0.00 93 1004.3
20260509113029 51 207 1.0 6.0 0.00 0.00 0.00 93 1004.2
20260509111528 51 241 0.0 3.0 0.00 0.00 0.00 93 1004.2
20260509110027 51 216 0.0 6.0 0.00 0.00 0.00 92 1004.2
20260509104526 51 196 3.0 7.0 0.00 0.00 0.00 92 1003.8
20260509103023 52 172 3.0 7.0 0.00 0.00 0.00 92 1003.7
20260509101520 52 189 3.0 7.0 0.00 0.00 0.00 92 1003.9
20260509100019 52 211 3.0 6.0 0.00 0.00 0.00 92 1003.9
20260509094517 52 189 1.0 6.0 0.00 0.00 0.00 92 1004.1
20260509093016 52 184 1.0 5.0 0.00 0.00 0.00 92 1004.2
20260509091515 52 189 1.0 6.0 0.00 0.00 0.00 92 1004.3
20260509090023 52 256 1.0 4.0 0.00 0.00 0.00 91 1004.4
20260509084512 53 210 1.0 4.0 0.00 0.00 0.00 91 1004.4
20260509083012 53 205 1.0 6.0 0.00 0.00 0.00 91 1004.6
20260509081512 53 194 0.0 6.0 0.00 0.00 0.00 90 1004.4
20260509080011 53 185 1.0 6.0 0.00 0.00 0.00 90 1004.5
20260509074510 53 229 2.0 6.0 0.00 0.00 0.00 89 1004.4
20260509073017 53 208 1.0 5.0 0.00 0.00 0.00 89 1004.5
20260509071504 53 264 1.0 5.0 0.00 0.00 0.00 88 1004.8
20260509070002 53 209 1.0 6.0 0.00 0.00 0.00 88 1005.0
20260509064601 53 234 1.0 7.0 0.00 0.00 0.00 87 1005.4
20260509063104 53 217 0.0 4.0 0.00 0.00 0.00 86 1005.4
20260509061556 54 240 1.0 7.0 0.00 0.00 0.00 85 1005.6
20260509060109 54 233 1.0 7.0 0.00 0.00 0.00 85 1005.6
20260509054552 54 238 1.0 6.0 0.00 0.00 0.00 85 1005.7
20260509053102 55 215 0.0 8.0 0.00 0.00 0.00 84 1005.9
20260509051551 55 198 2.0 8.0 0.00 0.00 0.00 84 1005.9
20260509050046 55 234 2.0 5.0 0.00 0.00 0.00 84 1005.8
20260509044545 55 203 1.0 9.0 0.00 0.00 0.00 83 1005.9
20260509043052 56 186 2.0 7.0 0.00 0.00 0.00 83 1005.9
20260509041545 56 200 2.0 6.0 0.00 0.00 0.00 82 1005.8
20260509040059 57 205 3.0 8.0 0.00 0.00 0.00 81 1005.8
20260509034544 57 225 2.0 7.0 0.00 0.00 0.00 80 1006.1
20260509033106 58 233 2.0 9.0 0.00 0.00 0.00 77 1006.2
20260509031542 58 202 2.0 7.0 0.00 0.00 0.00 74 1006.2
20260509030043 59 206 3.0 8.0 0.00 0.00 0.00 72 1006.3
20260509024552 59 201 4.0 9.0 0.00 0.00 0.00 69 1006.2
20260509023042 60 213 2.0 7.0 0.00 0.00 0.00 68 1006.2
20260509021541 60 194 2.0 8.0 0.00 0.00 0.00 68 1006.1
20260509020040 61 191 3.0 7.0 0.00 0.00 0.00 66 1006.0
20260509014540 61 186 2.0 7.0 0.00 0.00 0.00 59 1005.8
20260509013040 62 194 2.0 4.0 0.00 0.00 0.00 58 1005.8
20260509011544 62 194 1.0 5.0 0.00 0.00 0.00 56 1005.8
20260509010040 63 208 1.0 4.0 0.00 0.00 0.00 55 1005.8
20260509004537 64 205 2.0 5.0 0.00 0.00 0.00 53 1005.7
20260509003037 64 188 2.0 5.0 0.00 0.00 0.00 51 1005.9
20260509001537 65 196 1.0 6.0 0.00 0.00 0.00 50 1006.0
20260509000035 65 247 2.0 7.0 0.00 0.00 0.00 50 1005.9
20260508234534 65 204 1.0 11.0 0.00 0.00 0.00 49 1006.0
20260508233037 66 150 3.0 6.0 0.00 0.00 0.00 48 1006.1
20260508231533 67 172 3.0 8.0 0.00 0.00 0.00 46 1006.1
20260508230032 67 269 2.0 11.0 0.00 0.00 0.00 46 1006.0
20260508224533 67 264 1.0 8.0 0.00 0.00 0.00 44 1006.1
20260508223033 67 232 2.0 7.0 0.00 0.00 0.00 44 1006.2
20260508221532 67 190 1.0 7.0 0.00 0.00 0.00 45 1006.2
20260508220030 68 207 3.0 7.0 0.00 0.00 0.00 45 1006.2
20260508214532 67 230 3.0 10.0 0.00 0.00 0.00 46 1006.3
20260508213026 68 217 1.0 6.0 0.00 0.00 0.00 42 1006.4
20260508211525 67 223 3.0 8.0 0.00 0.00 0.00 45 1006.4
20260508210032 68 337 1.0 5.0 0.00 0.00 0.00 47 1006.5
20260508204522 68 240 2.0 5.0 0.00 0.00 0.00 46 1006.6
20260508203021 67 192 2.0 11.0 0.00 0.00 0.00 50 1006.7
20260508201514 66 198 2.0 7.0 0.00 0.00 0.00 52 1007.1
20260508200014 65 185 3.0 7.0 0.00 0.00 0.00 53 1007.4
20260508194509 65 216 2.0 6.0 0.00 0.00 0.00 52 1007.7
20260508193007 66 355 1.0 4.0 0.00 0.00 0.00 50 1007.8
20260508191506 65 222 0.0 3.0 0.00 0.00 0.00 50 1007.9
20260508190004 65 242 0.0 5.0 0.00 0.00 0.00 50 1008.0
20260508184615 65 23 1.0 7.0 0.00 0.00 0.00 50 1008.3
20260508183101 64 20 1.0 7.0 0.00 0.00 0.00 55 1008.5
20260508181603 65 196 3.0 7.0 0.00 0.00 0.00 52 1008.5
20260508180058 65 230 1.0 7.0 0.00 0.00 0.00 58 1008.8
20260508174551 64 229 0.0 5.0 0.00 0.00 0.00 60 1009.1
20260508173048 64 290 1.0 5.0 0.00 0.00 0.00 61 1009.2
20260508171546 63 325 0.0 7.0 0.00 0.00 0.00 64 1009.4
20260508170043 63 190 1.0 5.0 0.00 0.00 0.00 65 1009.8
20260508164539 62 166 1.0 7.0 0.00 0.00 0.00 69 1009.9
20260508163050 61 248 1.0 11.0 0.00 0.00 0.00 69 1010.2
20260508161549 61 196 2.0 7.0 0.00 0.00 0.00 70 1010.4
20260508160035 61 198 3.0 6.0 0.00 0.00 0.00 70 1010.5
20260508154534 61 209 0.0 7.0 0.00 0.00 0.00 69 1010.4
20260508153049 61 238 0.0 5.0 0.00 0.00 0.00 71 1010.6
20260508151527 59 194 1.0 5.0 0.00 0.00 0.00 72 1010.7
20260508150026 59 196 0.0 3.0 0.00 0.00 0.00 73 1010.9
20260508144525 59 197 2.0 6.0 0.00 0.00 0.00 73 1010.9
20260508143021 58 186 0.0 6.0 0.00 0.00 0.00 77 1011.1